ALOUETTE 1 (S-27) 1 00424U 62049A 12038.93969691 .00000065 00000-0 65137-4 0 8601 2 00424 80.4626 40.8526 0024490 78.1294 282.2596 13.68805957463811 IUE 1 10637U 78012A 12036.37417932 -.00000243 00000-0 10000-3 0 7658 2 10637 43.8109 2.6043 1489235 171.9269 190.8414 1.00056287 77095 IRAS 1 13777U 83004A 12039.52870837 -.00000079 00000-0 -23883-4 0 7821 2 13777 99.0280 237.2858 0020084 55.5255 304.7805 14.00136187152827 AKEBONO (EXOS-D) 1 19822U 89016A 12039.06826018 .00029587 49675-6 85404-3 0 940 2 19822 75.0933 153.3715 2535757 283.8214 49.5678 10.34303406693199 INTERCOSMOS 24 1 20261U 89080A 12039.48849786 .00000283 00000-0 85790-4 0 6796 2 20261 82.5928 195.3582 1212058 280.3415 66.3533 12.53844721 20658 COBE 1 20322U 89089A 12038.55387252 -.00000212 00000-0 -10533-3 0 6858 2 20322 99.0033 47.1930 0008315 321.7172 38.3397 14.04474669138672 HST 1 20580U 90037B 12037.98935604 .00001450 00000-0 95032-4 0 9398 2 20580 28.4702 281.8885 0003297 105.0370 255.0571 15.02166594994980 CRRES 1 20712U 90065A 12039.26411835 .00000451 00000-0 71844-3 0 4012 2 20712 18.1138 28.6454 7128758 94.8290 342.5464 2.43407624180587 SARA 1 21578U 91050E 12039.47465824 .00000451 00000-0 12487-3 0 3554 2 21578 98.3546 11.2531 0003510 89.0484 271.1111 14.51160469 84514 SAMPEX 1 22012U 92038A 12038.91633546 .00027848 00000-0 35344-3 0 7663 2 22012 81.6368 274.3711 0030233 91.9227 268.5487 15.58693124 83406 ORBVIEW 1 (MICROLAB) 1 23547U 95017C 12039.57135479 .00000477 00000-0 12217-3 0 7935 2 23547 69.9777 85.7310 0013333 309.4511 50.5449 14.56282672893255 RXTE (XTE) 1 23757U 95074A 12038.91851261 .00004281 00000-0 11424-3 0 5745 2 23757 22.9893 335.9027 0007240 235.5588 124.4285 15.33209179893766 POLAR 1 23802U 96013A 12038.73117507 .00000005 00000-0 10000-3 0 2070 2 23802 82.6271 311.0722 6417971 41.7346 352.4407 1.29845890 76777 FAST 1 24285U 96049A 12039.76732599 .00003868 00000-0 33153-3 0 3966 2 24285 82.9709 291.2499 1973981 123.5883 256.9503 11.31701061627525 TRACE 1 25280U 98020A 12039.53124517 .00001804 00000-0 14561-3 0 1196 2 25280 97.6077 244.9598 0024863 223.9631 135.9619 15.00886953755854 SAFIR 2 1 25399U 98043F 12039.49097948 .00000081 00000-0 53088-4 0 1356 2 25399 98.3193 31.8740 0001171 209.1943 150.9160 14.24066583705872 SWAS 1 25560U 98071A 12039.21749114 .00001104 00000-0 12927-3 0 8020 2 25560 69.9005 120.2371 0011662 245.2573 114.7369 14.88022483713999 ASTRID 2 1 25568U 98072B 12039.23412266 .00000077 00000-0 68644-4 0 9056 2 25568 82.9481 348.0519 0023288 254.1565 105.7023 13.72109006659132 ORSTED 1 25635U 99008B 12039.60154586 .00000452 00000-0 11923-3 0 4295 2 25635 96.4546 17.0575 0142621 357.6000 2.4481 14.46248344683397 SUNSAT (SO-35) 1 25636U 99008C 12039.46679139 .00000199 00000-0 58949-4 0 1303 2 25636 96.4616 7.2936 0148943 42.3760 318.8825 14.43700516682501 ABRIXAS 1 25721U 99022A 12039.56029220 .00004179 00000-0 17977-3 0 3315 2 25721 48.4647 98.7431 0018127 302.9727 56.9463 15.24502425707606 TERRIERS 1 25735U 99026A 12039.86568246 .00002475 00000-0 97259-4 0 5123 2 25735 97.1037 245.0446 0005416 226.7196 133.3592 15.26557163706173 FUSE 1 1 25791U 99035A 12039.68149338 .00000344 00000-0 49012-4 0 1800 2 25791 24.9839 162.4239 0010241 349.2987 10.7305 14.41984937666035 CXO 1 25867U 99040B 12039.33333333 -.00000395 00000-0 00000+0 0 6993 2 25867 71.3430 14.3759 8738328 277.8270 357.3911 0.37800095 8660 CLEMENTINE 1 25978U 99064B 12039.84388270 .00001001 00000-0 11788-3 0 5192 2 25978 98.1096 148.4826 0009447 215.7465 144.3114 14.87116829659468 XMM-NEWTON 1 25989U 99066A 12038.25000000 .00000179 00000-0 10000-3 0 1469 2 25989 62.7632 81.5798 6665731 98.2973 353.8156 0.50135194 11079 TERRA 1 25994U 99068A 12039.70243548 .00000171 00000-0 48052-4 0 7056 2 25994 98.2072 115.6209 0000952 72.1737 287.9561 14.57092239645900 ACRIMSAT 1 26033U 99070B 12038.78671558 .00000099 00000-0 29071-4 0 4671 2 26033 97.8468 253.5854 0029436 40.5090 319.8286 14.60855377646506 IMAGE 1 26113U 00017A 12036.23606538 .00000132 00000-0 10000-3 0 1853 2 26113 93.1391 223.5377 7649675 174.3189 207.3854 1.68633924 73064 CLUSTER II-FM6 (SALSA) 1 26410U 00041A 12038.12500000 .00002783 00000-0 00000-0 0 7594 2 26410 140.6769 277.5402 8550497 95.5964 358.7219 0.44220570 8840 CLUSTER II-FM7 (SAMBA) 1 26411U 00041B 12038.12500000 .00002784 00000-0 00000-0 0 7596 2 26411 140.6803 277.5220 8550695 95.5844 358.7309 0.44220172 8922 CLUSTER II-FM5 (RUMBA) 1 26463U 00045A 12038.12500000 .00002861 00000-0 00000-0 0 7492 2 26463 142.9490 273.0611 8453177 91.6302 358.7077 0.44221413 9421 CLUSTER II-FM8 (TANGO) 1 26464U 00045B 12038.12500000 .00003777 00000-0 00000+0 0 7343 2 26464 141.5796 268.9000 8888511 88.3737 357.0898 0.44221324 8816 MEGSAT-1 1 26546U 00057B 12039.07863088 .00000870 00000-0 11739-3 0 5007 2 26546 64.5612 315.9489 0034991 310.8048 48.9996 14.85334483615569 HETE-2 1 26561U 00061A 12037.09105548 .00002291 00000-0 12087-3 0 7243 2 26561 1.9495 287.9408 0022858 219.2736 140.6109 14.97870099619756 MUNIN 1 26621U 00075C 12038.81891049 .00000878 00000-0 79762-3 0 3051 2 26621 95.4224 313.4808 0717897 71.9745 295.8222 13.03845779533530 ODIN 1 26702U 01007A 12039.62187838 .00001027 00000-0 93066-4 0 5436 2 26702 97.6584 57.2653 0004920 104.2298 255.9440 14.97469964597961 TIMED 1 26998U 01055B 12039.06504922 .00000545 00000-0 68423-4 0 1025 2 26998 74.0710 239.2006 0000690 111.7701 248.3575 14.84791700550825 RHESSI 1 27370U 02004A 12039.86736103 .00002031 00000-0 14618-3 0 7755 2 27370 38.0390 238.7295 0015888 270.9927 88.9015 15.05392572549239 INTEGRAL 1 27540U 02048A 12038.20833333 .00000392 00000-0 10000-3 0 1249 2 27540 70.5022 297.4613 8917918 249.9903 358.5229 0.33420790 7523 FEDSAT 1 27598U 02056B 12039.53475404 .00000048 00000-0 35668-4 0 5957 2 27598 98.2643 60.3759 0008164 262.4282 97.5973 14.28132206477164 WEOS 1 27599U 02056C 12039.06036630 .00000027 00000-0 26848-4 0 5924 2 27599 98.2719 68.1664 0009141 274.4624 85.5523 14.28726781477276 MICRO LABSAT 1 27600U 02056D 12039.58766270 .00000083 00000-0 49037-4 0 5640 2 27600 98.2653 67.9696 0010071 275.5722 84.4301 14.29001260477454 CORIOLIS 1 27640U 03001A 12039.43134323 .00000110 00000-0 74399-4 0 7920 2 27640 98.7559 47.7681 0014532 159.9953 200.1813 14.18484656470635 CHIPSAT 1 27643U 03002B 12039.16265939 .00001194 00000-0 99957-4 0 9609 2 27643 94.0186 86.5438 0008950 247.5751 112.4513 14.98930199495546 SORCE 1 27651U 03004A 12038.96115702 .00000885 00000-0 12130-3 0 7161 2 27651 39.9976 23.5314 0026592 224.9862 134.8774 14.83290990489652 GALEX 1 27783U 03017A 12038.66594152 .00000474 00000-0 74992-4 0 4232 2 27783 28.9986 142.0901 0004309 219.4038 140.6217 14.60234990468996 MOST 1 27843U 03031D 12039.57003215 .00000024 00000-0 31692-4 0 3130 2 27843 98.7177 48.5234 0009103 248.7146 111.3059 14.20219151446343 QUAKESAT 1 27845U 03031F 12039.54245080 .00000253 00000-0 13779-3 0 3316 2 27845 98.7147 49.5559 0008204 258.3985 101.6267 14.20669572446352 AAU CUBESAT 1 27846U 03031G 12039.54229319 .00000175 00000-0 10039-3 0 2053 2 27846 98.6959 50.3304 0008500 211.0194 149.0481 14.21236824446599 SCISAT 1 1 27858U 03036A 12038.63020818 .00000350 00000-0 56875-4 0 5432 2 27858 73.9354 83.6207 0009707 274.5673 85.4423 14.75241058457050 KAISTSAT 4 1 27945U 03042G 12039.18872650 .00000194 00000-0 46104-4 0 4828 2 27945 97.8212 247.3781 0011994 331.3224 28.7304 14.63428660446842 GP-B 1 28230U 04014A 12039.86521634 .00000452 00000-0 62782-4 0 3369 2 28230 89.9214 150.0837 0002188 64.6634 295.4813 14.76468089420373 DEMETER 1 28368U 04025C 12039.70764567 .00000367 00000-0 67007-4 0 5935 2 28368 97.8824 95.7803 0002246 84.2667 275.8796 14.71334586407766 DOUBLESTAR (TC-2) 1 28382U 04029A 12039.85254845 .00000078 00000-0 26107-3 0 113 2 28382 88.7683 325.8023 7261132 111.3028 335.8346 2.15595418 58225 SWIFT 1 28485U 04047A 12038.35077816 .00001977 00000-0 14177-3 0 834 2 28485 20.5572 45.2437 0013978 162.7450 197.3467 14.94334311394105 SUZAKU (ASTRO-EII) 1 28773U 05025A 12039.03543693 .00001890 00000-0 13161-3 0 6920 2 28773 31.4062 265.4415 0007181 334.8115 25.2178 15.03049726361488 AKARI (ASTRO-F) 1 28939U 06005A 12039.23335394 .00005079 00000-0 29493-3 0 8056 2 28939 98.2523 55.5877 0183387 344.9633 14.6178 14.99509934317170 FORMOSAT-3 FM6 1 29047U 06011A 12039.08684741 .00000049 00000-0 36573-4 0 7228 2 29047 71.9771 215.0160 0052941 281.7725 77.7484 14.27386036305537 FORMOSAT-3 FM1 1 29048U 06011B 12039.52169172 .00000392 00000-0 17471-3 0 8052 2 29048 71.9709 128.4520 0046615 234.6672 125.0100 14.27405726308077 FORMOSAT-3 FM5 1 29049U 06011C 12039.25046128 .00000363 00000-0 16364-3 0 7482 2 29049 72.0215 283.4732 0036946 286.8440 72.8647 14.27417350303815 FORMOSAT-3 FM3 1 29050U 06011D 12038.90264152 .00001124 00000-0 26646-3 0 645 2 29050 72.0169 13.6314 0051714 102.5739 258.1171 14.55106549311646 FORMOSAT-3 FM4 1 29051U 06011E 12039.35509795 .00000375 00000-0 16522-3 0 8031 2 29051 72.0041 190.6264 0069647 160.1060 200.2823 14.27414054306410 FORMOSAT-3 FM2 1 29052U 06011F 12039.04038161 .00000362 00000-0 16273-3 0 8244 2 29052 72.0345 256.4026 0042636 255.8923 103.7470 14.27453311304674 CLOUDSAT 1 29107U 06016A 12039.58394890 .00000158 00000-0 43823-4 0 8259 2 29107 98.2243 344.5737 0008216 147.9813 212.1847 14.58790104307635 CALIPSO 1 29108U 06016B 12039.03621374 .00000478 00000-0 11632-3 0 8493 2 29108 98.2222 343.6032 0001002 94.2447 265.8873 14.57073564307507 HINODE (SOLAR-B) 1 29479U 06041A 12039.07664613 .00000334 00000-0 73663-4 0 6963 2 29479 98.1083 40.7310 0014540 239.6400 120.3363 14.63416063287217 SJ-6C 1 29505U 06046A 12039.80323197 .00000161 00000-0 21659-4 0 9170 2 29505 97.7164 37.9540 0004431 98.2160 261.9570 14.91326722288109 SJ-6D 1 29506U 06046B 12039.69787215 .00000641 00000-0 71125-4 0 8954 2 29506 97.7250 36.5096 0002723 135.4938 224.6491 14.90575494287957 COROT 1 29678U 06063A 12038.99507639 .00000208 00000-0 13855-3 0 6968 2 29678 90.0062 10.1193 0006120 25.3102 334.8373 13.98249384261065 AIM 1 31304U 07015A 12039.33410321 .00002625 00000-0 24572-3 0 6070 2 31304 97.8262 148.1003 0009645 253.9100 106.1016 14.94930215260942 FGRST (GLAST) 1 33053U 08029A 12039.83438456 .00000281 00000-0 00000+0 0 9809 2 33053 25.5824 306.0236 0013676 63.1700 297.0249 15.06003849201699 KORONAS-FOTON 1 33504U 09003A 12039.56237699 .00001099 00000-0 71509-4 0 3448 2 33504 82.4768 2.6939 0016605 31.7556 86.1194 15.06898262166128 TATIANA 2 1 35868U 09049D 12039.76358653 .00000069 00000-0 50748-4 0 1692 2 35868 98.6725 96.7788 0005052 59.0884 301.0794 14.22232872124239 UGATUSAT 1 35869U 09049E 12039.70777614 -.00000010 00000-0 15233-4 0 1326 2 35869 98.6703 96.3716 0005406 70.3775 289.7986 14.22053057124210 SUMBANDILA (SO-67) 1 35870U 09049F 12039.77395068 .00003147 00000-0 13781-3 0 6631 2 35870 97.2511 80.0581 0000560 299.4386 172.1768 15.22733547132911 WISE 1 36119U 09071A 12038.98239962 .00001941 00000-0 10795-3 0 6277 2 36119 97.5172 44.9489 0002786 345.3235 14.7915 15.14852450118775 SDO 1 36395U 10005A 12039.06232976 -.00000061 00000-0 00000+0 0 4387 2 36395 27.8465 176.4409 0001649 309.3980 292.3520 1.00270064 7485 CRYOSAT 2 1 36508U 10013A 12039.29956026 .00000003 00000-0 00000+0 0 5663 2 36508 92.0254 89.2759 0010902 144.7594 215.4340 14.52178897 97335 PICARD 1 36598U 10028A 12039.78813663 .00000139 00000-0 47408-4 0 7942 2 36598 98.2864 226.6467 0001740 177.1542 182.9662 14.49582154 87374 SPEKTR-R 1 37755U 11037A 12022.32569444 -.00002835 00000-0 10000-3 0 234 2 37755 75.8255 304.8795 7653113 318.5580 1.2778 0.11264459 235